Back to catalog

COSMOS 2583

AliveMilitaryPO
NORAD 62904·PAYLOAD·🇷🇺 Russia

Launched Feb 5, 2025 from Plesetsk Cosmodrome

Loading…

Next Passes (next 24 hours)

TLE

FreshSource: Space-Track

Epoch: Sep 13, 2026, 18:23 UTC

1 62904U 25026C   26256.76609347  .00001691  00000-0  15166-3 0  9998
2 62904  81.9992 344.1017 0011304 119.6779 240.5568 14.95177677 87436

Track COSMOS 2583 in real time with AllMySat

Download on the App Store